Location: Azul
(36.7830°S, 59.8500°W)
Time: 05:52:22
(UTC-03:00)

STRAND 1 - Visible Passes

Search period start: 16 September 2024 00:00
Search period end: 26 September 2024 00:00
Orbit: 764 x 777 km, 98.4° (Epoch: 15 September)

Date Brightness Start Highest point End Pass type
(mag) Time Alt. Az. Time Alt. Az. Time Alt. Az.
16 Sep ? 06:29:47 10° SE 06:34:08 27° E 06:38:26 10° NNE visible
16 Sep ? 19:21:46 10° NNW 19:26:10 28° W 19:30:37 10° SW visible
17 Sep ? 05:56:49 10° ESE 05:58:41 12° E 06:00:32 10° ENE visible
18 Sep ? 19:52:27 10° NW 19:55:15 15° W 19:58:04 10° WSW visible
19 Sep ? 06:23:41 10° SE 06:27:47 24° E 06:31:51 10° NNE visible
19 Sep ? 19:15:14 10° NNW 19:19:50 33° W 19:24:28 10° SSW visible
21 Sep ? 19:45:34 10° NW 19:48:51 17° W 19:52:10 10° SW visible
22 Sep ? 06:17:36 10° SE 06:21:25 21° E 06:25:10 10° NE visible
24 Sep ? 19:38:47 10° NW 19:42:27 20° W 19:46:08 10° SW visible
25 Sep ? 06:11:32 10° SE 06:14:59 18° E 06:18:23 10° NE visible
